User: anonymous   Login
Location: Unspecified
(49.7860°N, 0.0000°E)
Time: 21:37:30
(UTC+00:00)
Language:

Resurs 1-4 Rocket - Orbit

View from above orbital plane
View from above orbital plane
View from above satellite
View from above satellite

Ground track
Ground track

The orbit is defined by the following mean orbital elements,

1 25400U          26088.09664719 +.00000000 +00000-0 +48776-4 0 00006
2 25400  98.8286  41.6015 0009200 323.6606  36.3947 14.26054203    07
Epoch (UTC): 29 March 2026 02:19:10
Eccentricity: 0.0009200
inclination: 98.8286°
perigee height: 798 km
apogee height: 812 km
right ascension of ascending node: 41.6015°
argument of perigee: 323.6606°
revolutions per day: 14.26054203
mean anomaly at epoch: 36.3947°

The dashed part of the orbit path shows where the satellite is in the earth's shadow,  

DLR